Date String (YYYY-MM-DD hh:mm:ss) UTC,Instrument flags,Ambient pressure (hPa),Sample flow (lpm),Bypass flow (lpm),Sample temperature (°C),Ambient temperature (°C),ASC tube jacket temperature (°C),LED temperature (°C),Box temperature (°C),Sample RH (%),Span deviation,Mass concentration (μg/m³),Mass concentration (μg/m³),Mass concentration (μg/m³)
DateTimeUTC,F1_M11,P_M11,Q1_M11,Q2_M11,T1_M11,T2_M11,T3_M11,T4_M11,T5_M11,U1_M11,ZSPAN_M11,X0_M11,X2_M11,X1_M11
2021-12-01 23:00:00,,0828.9,5.01,0.00,30.0,29.2,00.0,38.8,31.7,09.9,0000.0,0001.27,0000.53,0000.30
2021-12-01 23:01:00,,0828.9,5.01,0.00,30.0,29.2,00.0,38.8,31.8,09.9,0000.0,0002.11,0000.51,0000.30
2021-12-01 23:02:00,,0828.9,4.99,0.00,30.0,29.3,00.0,38.9,31.9,09.8,0000.0,0002.48,0000.51,0000.30
2021-12-01 23:03:00,,0828.9,4.99,0.00,30.1,29.3,00.0,38.9,31.9,09.8,0000.0,0002.55,0000.49,0000.30
2021-12-01 23:04:00,,0828.9,5.00,0.00,30.1,28.7,00.0,38.9,31.8,09.8,0000.0,0002.51,0000.48,0000.30
2021-12-01 23:05:00,,0828.9,5.00,0.00,30.0,26.8,00.0,38.9,31.3,09.9,0000.0,0002.54,0000.49,0000.31
2021-12-01 23:06:00,,0828.9,5.00,0.00,29.9,26.6,00.0,38.9,31.2,09.9,0000.0,0002.43,0000.49,0000.31
2021-12-01 23:07:00,,0828.9,5.01,0.00,29.8,26.9,00.0,38.8,31.3,10.0,0000.0,0002.42,0000.48,0000.31
2021-12-01 23:08:00,,0828.9,5.00,0.00,29.7,27.3,00.0,38.8,31.3,10.0,0000.0,0002.47,0000.49,0000.31
2021-12-01 23:09:00,,0828.9,4.99,0.00,29.7,27.7,00.0,38.8,31.4,10.0,0000.0,0002.81,0000.55,0000.31
2021-12-01 23:10:00,,0828.9,4.99,0.00,29.8,28.0,00.0,38.8,31.4,10.0,0000.0,0002.70,0000.51,0000.30
2021-12-01 23:11:00,,0828.9,5.01,0.00,29.8,28.2,00.0,38.8,31.5,10.1,0000.0,0002.76,0000.53,0000.31
2021-12-01 23:12:00,,0828.9,5.01,0.00,29.8,28.4,00.0,38.8,31.5,10.1,0000.0,0001.70,0000.54,0000.32
2021-12-01 23:13:00,,0828.9,5.00,0.00,29.8,28.6,00.0,38.8,31.6,10.0,0000.0,0001.50,0000.56,0000.32
2021-12-01 23:14:00,,0828.9,5.01,0.00,29.8,28.7,00.0,38.8,31.6,10.0,0000.0,0001.40,0000.57,0000.32
2021-12-01 23:15:00,,0828.9,5.00,0.00,29.9,28.8,00.0,38.8,31.7,10.0,0000.0,0001.50,0000.59,0000.32
2021-12-01 23:16:00,,0828.9,4.99,0.00,29.9,28.9,00.0,38.8,31.7,10.0,0000.0,0001.60,0000.58,0000.31
2021-12-01 23:17:00,,0829.0,5.00,0.00,29.9,28.9,00.0,38.8,31.7,10.0,0000.0,0001.55,0000.58,0000.32
2021-12-01 23:18:00,,0829.0,5.00,0.00,30.0,29.0,00.0,38.8,31.8,10.0,0000.0,0001.67,0000.62,0000.33
2021-12-01 23:19:00,,0829.1,5.00,0.00,30.0,29.1,00.0,38.9,31.8,10.0,0000.0,0003.17,0000.66,0000.33
2021-12-01 23:20:00,,0829.1,5.01,0.00,30.0,29.1,00.0,38.9,31.9,09.9,0000.0,0002.99,0000.66,0000.34
2021-12-01 23:21:00,,0829.0,4.98,0.00,30.1,29.2,00.0,38.9,31.9,09.9,0000.0,0003.35,0000.68,0000.35
2021-12-01 23:22:00,,0829.0,5.01,0.00,30.1,29.2,00.0,38.9,31.9,09.9,0000.0,0004.80,0000.67,0000.35
2021-12-01 23:23:00,,0829.1,4.98,0.00,30.1,27.9,00.0,38.9,31.6,10.0,0000.0,0005.68,0000.68,0000.35
2021-12-01 23:24:00,,0829.1,5.00,0.00,29.9,26.4,00.0,38.9,31.2,10.0,0000.0,0005.60,0000.66,0000.35
2021-12-01 23:25:00,,0829.1,5.00,0.00,29.8,26.4,00.0,38.9,31.2,10.2,0000.0,0005.63,0000.65,0000.35
2021-12-01 23:26:00,,0829.0,5.02,0.00,29.8,26.8,00.0,38.9,31.3,10.2,0000.0,0005.62,0000.65,0000.35
2021-12-01 23:27:00,,0829.1,5.00,0.00,29.7,27.2,00.0,38.8,31.3,10.2,0000.0,0005.57,0000.69,0000.35
2021-12-01 23:28:00,,0829.1,5.01,0.00,29.7,27.6,00.0,38.8,31.4,10.2,0000.0,0005.66,0000.70,0000.35
2021-12-01 23:29:00,,0829.1,4.99,0.00,29.7,27.9,00.0,38.8,31.4,10.2,0000.0,0005.75,0000.69,0000.35
2021-12-01 23:30:00,,0829.1,5.01,0.00,29.8,28.1,00.0,38.8,31.5,10.2,0000.0,0004.59,0000.69,0000.35
2021-12-01 23:31:00,,0829.1,4.99,0.00,29.8,28.3,00.0,38.8,31.5,10.2,0000.0,0004.21,0000.64,0000.35
2021-12-01 23:32:00,,0829.1,5.00,0.00,29.8,28.5,00.0,38.8,31.5,10.2,0000.0,0004.16,0000.61,0000.34
2021-12-01 23:33:00,,0829.0,5.00,0.00,29.8,28.6,00.0,38.8,31.6,10.2,0000.0,0002.61,0000.63,0000.33
2021-12-01 23:34:00,,0829.1,5.00,0.00,29.8,28.7,00.0,38.8,31.6,10.2,0000.0,0002.47,0000.61,0000.33
2021-12-01 23:35:00,,0829.1,5.00,0.00,29.9,28.8,00.0,38.8,31.7,10.2,0000.0,0005.54,0000.61,0000.32
2021-12-01 23:36:00,,0829.0,5.00,0.00,29.9,28.8,00.0,38.8,31.7,10.2,0000.0,0006.25,0000.63,0000.33
2021-12-01 23:37:00,,0829.1,5.00,0.00,29.9,28.9,00.0,38.8,31.8,10.2,0000.0,0006.94,0000.72,0000.34
2021-12-01 23:38:00,,0829.1,5.00,0.00,30.0,29.0,00.0,38.8,31.8,10.2,0000.0,0007.43,0000.72,0000.35
2021-12-01 23:39:00,,0829.0,5.01,0.00,30.0,29.0,00.0,38.9,31.8,10.2,0000.0,0008.11,0000.76,0000.35
2021-12-01 23:40:00,,0829.1,4.99,0.00,30.0,29.1,00.0,38.9,31.8,10.1,0000.0,0008.65,0000.87,0000.35
2021-12-01 23:41:00,,0829.0,5.00,0.00,30.1,29.1,00.0,38.9,31.8,10.1,0000.0,0009.30,0000.94,0000.35
2021-12-01 23:42:00,,0829.0,5.00,0.00,30.1,29.2,00.0,38.9,31.9,10.1,0000.0,0010.42,0000.99,0000.36
2021-12-01 23:43:00,,0829.1,5.02,0.00,30.1,29.2,00.0,39.0,31.9,10.1,0000.0,0010.48,0001.03,0000.36
2021-12-01 23:44:00,,0829.1,5.00,0.00,30.1,29.3,00.0,39.0,31.9,10.1,0000.0,0010.52,0001.06,0000.37
2021-12-01 23:45:00,,0829.0,4.98,0.00,30.2,29.3,00.0,39.0,32.0,10.0,0000.0,0010.23,0001.17,0000.38
2021-12-01 23:46:00,,0829.0,5.01,0.00,30.2,29.4,00.0,39.0,32.0,10.0,0000.0,0010.06,0001.27,0000.39
2021-12-01 23:47:00,,0829.0,5.01,0.00,30.2,28.0,00.0,39.0,31.7,10.1,0000.0,0010.10,0001.31,0000.39
2021-12-01 23:48:00,,0828.9,4.99,0.00,30.0,26.4,00.0,39.0,31.3,10.2,0000.0,0009.92,0001.29,0000.38
2021-12-01 23:49:00,,0828.8,5.00,0.00,29.9,26.4,00.0,39.0,31.3,10.3,0000.0,0009.88,0001.30,0000.37
2021-12-01 23:50:00,,0828.9,5.00,0.00,29.8,26.7,00.0,38.9,31.2,10.3,0000.0,0009.15,0001.25,0000.36
2021-12-01 23:51:00,,0829.0,5.01,0.00,29.8,27.2,00.0,38.9,31.3,10.3,0000.0,0008.56,0001.13,0000.36
2021-12-01 23:52:00,,0829.0,4.99,0.00,29.8,27.5,00.0,38.9,31.4,10.4,0000.0,0008.01,0001.04,0000.36
2021-12-01 23:53:00,,0828.9,5.00,0.00,29.8,27.8,00.0,38.8,31.4,10.3,0000.0,0006.65,0000.99,0000.35
2021-12-01 23:54:00,,0829.0,5.00,0.00,29.8,28.0,00.0,38.8,31.4,10.4,0000.0,0006.38,0000.94,0000.35
2021-12-01 23:55:00,,0829.0,5.00,0.00,29.8,28.2,00.0,38.8,31.5,10.4,0000.0,0006.80,0000.93,0000.34
2021-12-01 23:56:00,,0829.0,5.00,0.00,29.8,28.3,00.0,38.8,31.5,10.4,0000.0,0006.89,0000.82,0000.33
2021-12-01 23:57:00,,0829.0,4.99,0.00,29.8,28.5,00.0,38.8,31.5,10.6,0000.0,0004.41,0000.78,0000.32
2021-12-01 23:58:00,,0828.9,4.99,0.00,29.8,28.6,00.0,38.8,31.6,10.6,0000.0,0003.87,0000.73,0000.32
2021-12-01 23:59:00,,0829.1,5.01,0.00,29.8,28.6,00.0,38.8,31.6,10.5,0000.0,0003.38,0000.66,0000.32
